Boscobel, WI

6:55 AM CDT on August 24, 2017 (GMT -0500)
Boscobel

Weather History for KOVS - January, 2014

Change the Weather History Date:

Friday, January 31, 2014

  Actual Average (KPDC) Record (KPDC)
Temperature  
Mean Temperature 4 °F -  
Max Temperature 10 °F 30 °F 56 °F (1989)
Min Temperature -2 °F 10 °F -20 °F (1985)
Degree Days  
Heating Degree Days 61    
Moisture  
Dew Point -7 °F    
Average Humidity 62    
Maximum Humidity 75    
Minimum Humidity 46    
Precipitation  
Precipitation 0.00 in - - ()
Sea Level Pressure  
Sea Level Pressure 30.17 in    
Wind  
Wind Speed 4 mph (West)    
Max Wind Speed 8 mph    
Max Gust Speed -    
Visibility 10 miles    
Events      
Averages and records for this station are not official NWS values.
T = Trace of Precipitation, MM = Missing Value Source: NWS Daily Summary

Daily Weather History Graph

Daily Weather History Graph

Search for Another Location

Airport or City:

Trip Planner

Search our weather history database for the weather conditions in past years. The results will help you decide how hot, cold, wet, or windy it might be!

Date:

Astronomy

Jan. 31, 2014 Rise Set
Actual Time 7:19 AM CST 5:13 PM CST
Civil Twilight 6:48 AM CST 5:44 PM CST
Nautical Twilight 6:14 AM CST 6:18 PM CST
Astronomical Twilight 5:41 AM CST 6:51 PM CST
Moon 7:26 AM CST (1/31) 6:41 PM CST (1/31)
Length of Visible Light 10h 55m
Length of Day
9h 54m
New Moon, 1% of the Moon is Illuminated
Jan 31
New Moon
Feb 6
First Quarter
Feb 14
Full
Feb 22
Last Quarter
Mar 1
New

Hourly Weather History & Observations

Time (CST) Temp. Windchill Dew Point Humidity Pressure Visibility Wind Dir Wind Speed Gust Speed Precip Events Conditions
12:53 AM 10.9 °F 1.4 °F 1.0 °F 64% 30.05 in 10.0 mi West 5.8 mph - N/A   Clear
1:53 AM 8.1 °F -0.5 °F -0.9 °F 67% 30.08 in 10.0 mi West 4.6 mph - N/A   Clear
2:53 AM 6.1 °F -0.9 °F -2.9 °F 67% 30.08 in 10.0 mi WNW 3.5 mph - N/A   Clear
3:53 AM 3.9 °F -6.9 °F -4.0 °F 70% 30.10 in 10.0 mi WSW 5.8 mph - N/A   Clear
4:53 AM 1.0 °F -10.3 °F -6.0 °F 72% 30.13 in 10.0 mi SW 5.8 mph - N/A   Clear
5:53 AM 1.0 °F -8.7 °F -7.1 °F 69% 30.15 in 10.0 mi SW 4.6 mph - N/A   Clear
6:53 AM 1.0 °F -6.7 °F -7.1 °F 69% 30.19 in 10.0 mi SW 3.5 mph - N/A   Clear
7:53 AM 1.0 °F -8.7 °F -7.1 °F 69% 30.20 in 10.0 mi SW 4.6 mph - N/A   Clear
8:53 AM 1.9 °F -7.6 °F -8.0 °F 63% 30.22 in 10.0 mi WNW 4.6 mph - N/A   Clear
9:53 AM 3.0 °F -8.0 °F -9.0 °F 57% 30.23 in 10.0 mi WNW 5.8 mph - 0.00 in   Clear
10:53 AM 5.0 °F -2.1 °F -9.0 °F 52% 30.25 in 10.0 mi NW 3.5 mph - N/A   Clear
11:53 AM 7.0 °F 0.1 °F -8.0 °F 51% 30.23 in 10.0 mi West 3.5 mph - 0.00 in   Clear
12:53 PM 8.1 °F -4.3 °F -7.1 °F 50% 30.22 in 10.0 mi NW 8.1 mph - 0.00 in   Clear
1:53 PM 9.0 °F -2.2 °F -7.1 °F 48% 30.20 in 10.0 mi NW 6.9 mph - 0.00 in   Clear
2:53 PM 10.0 °F 1.8 °F -7.1 °F 46% 30.19 in 10.0 mi Variable 4.6 mph - 0.00 in   Clear
3:53 PM 10.0 °F 1.8 °F -6.0 °F 48% 30.19 in 10.0 mi South 4.6 mph - N/A   Clear
4:53 PM 9.0 °F 2.4 °F -7.1 °F 48% 30.18 in 10.0 mi SSW 3.5 mph - N/A   Clear
5:53 PM 5.0 °F -2.1 °F -7.1 °F 58% 30.17 in 2.5 mi South 3.5 mph - N/A   Haze
6:02 PM 3.0 °F - -7.1 °F 63% 30.12 in 10.0 mi Calm Calm - N/A   Clear
6:53 PM 1.9 °F - -7.1 °F 66% 30.17 in 10.0 mi Calm Calm - N/A   Clear
7:53 PM -0.9 °F - -9.0 °F 69% 30.17 in 8.0 mi Calm Calm - N/A   Clear
8:53 PM -2.0 °F - -9.0 °F 72% 30.17 in 10.0 mi Calm Calm - N/A   Scattered Clouds
9:53 PM -2.0 °F - -9.0 °F 72% 30.16 in 10.0 mi Calm Calm - N/A   Mostly Cloudy
10:53 PM -2.9 °F - -9.0 °F 75% 30.17 in 10.0 mi Calm Calm - N/A   Scattered Clouds
11:53 PM 1.0 °F - -7.1 °F 69% 30.15 in 10.0 mi Calm Calm - N/A   Overcast